Provo, UT

8:35 PM MDT on March 24, 2017 (GMT -0600)
Provo Municipal

Weather History for KPVU - January, 2013

Change the Weather History Date:

Tuesday, January 1, 2013

  Actual Average Record
Temperature  
Mean Temperature 8 °F -  
Max Temperature 15 °F 34 °F 53 °F (1997)
Min Temperature 1 °F 21 °F -4 °F (1991)
Degree Days  
Heating Degree Days 57    
Moisture  
Dew Point 7 °F    
Average Humidity 90    
Maximum Humidity 100    
Minimum Humidity 78    
Precipitation  
Precipitation 0.00 in - - ()
Sea Level Pressure  
Sea Level Pressure 30.35 in    
Wind  
Wind Speed 2 mph (SSE)    
Max Wind Speed 7 mph    
Max Gust Speed -    
Visibility 5 miles    
Events Snow    
Averages and records for this station are not official NWS values.
T = Trace of Precipitation, MM = Missing Value Source: NWS Daily Summary

Daily Weather History Graph

Daily Weather History Graph

Search for Another Location

Airport or City:

Trip Planner

Search our weather history database for the weather conditions in past years. The results will help you decide how hot, cold, wet, or windy it might be!

Date:

Astronomy

Jan. 01, 2013 Rise Set
Actual Time 7:49 AM MST 5:12 PM MST
Civil Twilight 7:18 AM MST 5:42 PM MST
Nautical Twilight 6:44 AM MST 6:16 PM MST
Astronomical Twilight 6:11 AM MST 6:49 PM MST
Moon 9:47 PM MST (1/1) 10:03 AM MST (1/1)
Length of Visible Light 10h 23m
Length of Day
9h 22m
Waning Gibbous, 83% of the Moon is Illuminated
Jan 1
Waning Gibbous
Jan 4
Last Quarter
Jan 11
New
Jan 18
First Quarter
Jan 26
Full

Hourly Weather History & Observations

Time (MST) Temp. Windchill Dew Point Humidity Pressure Visibility Wind Dir Wind Speed Gust Speed Precip Events Conditions
12:15 AM 15.8 °F 10.2 °F 12.2 °F 86% 30.28 in 3.0 mi SW 3.5 mph - N/A   Overcast
12:35 AM 14.0 °F - 12.2 °F 93% 30.28 in 3.0 mi Calm Calm - N/A   Scattered Clouds
12:55 AM 14.0 °F - 10.4 °F 86% 30.28 in 3.0 mi Calm Calm - N/A   Clear
1:15 AM 14.0 °F - 12.2 °F 93% 30.29 in 4.0 mi Calm Calm - N/A   Clear
1:55 AM 14.0 °F 8.2 °F 12.2 °F 93% 30.29 in 2.5 mi SSE 3.5 mph - N/A   Clear
2:15 AM 14.0 °F 8.2 °F 12.2 °F 93% 30.30 in 2.0 mi SE 3.5 mph - N/A   Clear
2:35 AM 12.2 °F - 10.4 °F 92% 30.30 in 2.5 mi Calm Calm - N/A   Clear
2:55 AM 10.4 °F - 10.4 °F 100% 30.31 in 3.0 mi Calm Calm - N/A   Clear
3:15 AM 12.2 °F 4.3 °F 10.4 °F 92% 30.32 in 9.0 mi SSE 4.6 mph - N/A   Clear
3:35 AM 12.2 °F 6.1 °F 10.4 °F 92% 30.32 in 7.0 mi SSE 3.5 mph - N/A   Clear
4:15 AM 10.4 °F 0.8 °F 8.6 °F 92% 30.33 in 4.0 mi SSE 5.8 mph - N/A   Clear
4:35 AM 10.4 °F -0.4 °F 6.8 °F 85% 30.32 in 6.0 mi SSE 6.9 mph - N/A   Clear
4:55 AM 10.4 °F -0.4 °F 6.8 °F 85% 30.31 in 5.0 mi SE 6.9 mph - N/A   Clear
5:15 AM 10.4 °F 4.0 °F 8.6 °F 92% 30.32 in 4.0 mi SSE 3.5 mph - N/A   Clear
5:35 AM 10.4 °F - 8.6 °F 92% 30.31 in 4.0 mi Calm Calm - N/A   Clear
5:55 AM 10.4 °F - 8.6 °F 92% 30.32 in 2.5 mi Calm Calm - N/A   Clear
6:15 AM 10.4 °F - 8.6 °F 92% 30.33 in 2.5 mi Calm Calm - N/A   Clear
6:55 AM 12.2 °F 6.1 °F 10.4 °F 92% 30.35 in 2.5 mi SE 3.5 mph - N/A   Clear
6:56 AM 12.2 °F 6.1 °F 10.4 °F 92% 30.35 in 2.0 mi ESE 3.5 mph - N/A Snow Light Snow
7:55 AM 12.2 °F - 10.4 °F 92% 30.37 in 1.5 mi Calm Calm - N/A Snow Light Snow
8:47 AM 12.2 °F - 10.4 °F 92% 30.38 in 2.0 mi Calm Calm - N/A Snow Light Snow
9:47 AM 12.2 °F - 8.6 °F 85% 30.40 in 5.0 mi Calm Calm - N/A Snow Light Snow
10:47 AM 12.2 °F - 10.4 °F 92% 30.41 in 7.0 mi Calm Calm - N/A   Scattered Clouds
2:50 PM 15.8 °F - 10.4 °F 79% 30.39 in 10.0 mi Calm Calm - N/A   Scattered Clouds
3:50 PM 14.0 °F - 10.4 °F 86% 30.39 in 10.0 mi Calm Calm - N/A   Scattered Clouds
4:50 PM 14.0 °F - 8.6 °F 79% 30.38 in 10.0 mi Calm Calm - N/A   Clear
5:56 PM 8.6 °F - 6.8 °F 92% 30.36 in 10.0 mi Calm Calm - N/A   Clear
6:50 PM 10.4 °F - 8.6 °F 92% 30.37 in 10.0 mi Calm Calm - N/A   Clear
7:58 PM 5.0 °F - 1.4 °F 85% 30.38 in 7.0 mi Calm Calm - N/A   Clear
8:51 PM 5.0 °F - 1.4 °F 85% 30.40 in 7.0 mi Calm Calm - N/A   Clear
9:15 PM 3.2 °F - -0.4 °F 85% 30.41 in 5.0 mi Calm Calm - N/A   Clear
9:35 PM 1.4 °F -6.2 °F -0.4 °F 92% 30.41 in 2.0 mi South 3.5 mph - N/A   Clear
9:55 PM 3.2 °F - -0.4 °F 85% 30.41 in 5.0 mi Calm Calm - N/A   Clear
10:15 PM 1.4 °F - 1.4 °F 100% 30.41 in 5.0 mi Calm Calm - N/A   Clear
10:35 PM 1.4 °F - -4.0 °F 78% 30.42 in 4.0 mi Calm Calm - N/A   Clear
10:55 PM 1.4 °F - 1.4 °F 100% 30.42 in 5.0 mi Calm Calm - N/A   Clear
11:15 PM 1.4 °F - -2.2 °F 85% 30.42 in 3.0 mi Calm Calm - N/A   Clear
11:55 PM 1.4 °F - -2.2 °F 85% 30.42 in 3.0 mi Calm Calm - N/A   Clear